Miscellaneous Local Product
Issued by NWS Hastings, NE

Home | Current Version | Previous Version | Graphics & Text | Print | Product List | Glossary On
Versions: 1 2 3 4 5 6 7 8 9 10 11 12 13 14 15 16 17 18 19 20 21 22 23 24 25 26 27 28 29 30 31 32 33 34 35 36 37 38 39 40 41 42 43 44 45 46 47 48 49 50
000
AXUS43 KGID 231202
MISGRI

GID CWA HOURLY WEATHER ROUNDUP
NATIONAL WEATHER SERVICE HASTINGS NE
700 AM CDT WED JUL 23 2014

NOTE: "FAIR" INDICATES FEW OR NO CLOUDS BELOW 12,000 FEET WITH NO
SIGNIFICANT WEATHER AND/OR OBSTRUCTIONS TO VISIBILITY.

...SOUTH CENTRAL NEBRASKA...

CITY           SKY/WX    TMP DP  RH WIND       PRES   REMARKS
GRAND ISLAND   CLEAR     63  60  90 N3        30.29S
HASTINGS       MOCLDY    68  60  75 E6        30.27F
KEARNEY        MOCLDY    68  63  83 SE8       30.29R
ORD            PTCLDY    60  58  92 N6        30.31R
YORK           CLEAR     61  61 100 NW6       30.28R
AURORA         PTCLDY    63  62  98 CALM      30.29R
LEXINGTON      PTCLDY    67  66  94 E7        30.27F
HOLDREGE       CLOUDY    67  64  89 E9        30.27F THUNDER
HEBRON         MOCLDY    71  64  79 W13G18    30.29R THUNDER

...NEBRASKA PANHANDLE...

CITY           SKY/WX    TMP DP  RH WIND       PRES   REMARKS
CHADRON        CLEAR     67  56  67 S9        30.26F
ALLIANCE       MOCLDY    66  58  75 E13       30.34F
SCOTTSBLUFF    CLOUDY    68  61  78 E17       30.35S
SIDNEY         CLOUDY    68  64  87 SE13      30.32F

...WESTERN AND NORTH CENTRAL NEBRASKA...

CITY           SKY/WX    TMP DP  RH WIND       PRES   REMARKS
VALENTINE      CLOUDY    69  63  81 S10       30.22F
AINSWORTH      CLOUDY    64  61  90 S8        30.30F
ONEILL         MOCLDY    61  56  85 SW3       30.33R
BROKEN BOW     MOCLDY    64  61  90 N8        30.31R
IMPERIAL       CLOUDY    68  65  90 SE14      30.28S
NORTH PLATTE   PTCLDY    65  63  93 E8        30.29R
MCCOOK         PTCLDY    67  63  87 E7        30.27R

...EASTERN NEBRASKA...

CITY           SKY/WX    TMP DP  RH WIND       PRES   REMARKS
NORFOLK        CLEAR     63  57  81 CALM      30.27R
SO SIOUX CITY  CLEAR     63  58  83 N6        30.26R
TEKAMAH        CLEAR     62  58  86 N7        30.24R
COLUMBUS       CLEAR     59  54  82 N5        30.27S
ALBION         PTCLDY    58  56  92 N3        30.31R
OMAHA EPPLEY   PTCLDY    64  58  80 N6        30.23R
OFFUTT AFB     CLEAR     67  59  76 N6        30.22R
MILLARD        CLEAR     67  58  73 CALM      30.23R
LINCOLN        CLEAR     66  59  78 N7        30.24S
NEBRASKA CITY  CLEAR     64  59  83 NE6       30.21S
BEATRICE       CLEAR     62  60  92 NE3       30.22F
FALLS CITY     CLEAR     67  62  84 NW6       30.19R

...NORTHERN KANSAS...

CITY           SKY/WX    TMP DP  RH WIND       PRES   REMARKS
GOODLAND       CLOUDY    68  67  96 E13       30.31R
HILL CITY      CLOUDY    72  66  81 SE7       30.23F
NORTON         SUNNY     68  61  77 N7        30.26
PHILLIPSBURG   CLEAR     70  66  88 NE13      30.23F
SMITH CENTER   CLEAR     66  63  88 CALM      30.23S
HAYS           CLOUDY    73  63  68 NE15G23   30.25R
RUSSELL        CLOUDY    74  67  78 N14       30.22S
CONCORDIA      CLOUDY    72  67  84 NW18G31   30.26R
SALINA         CLOUDY    77  68  73 NE9       30.18R
TOPEKA         CLEAR     74  68  81 N6        30.16R



USA.gov is the U.S. government's official web portal to all federal, state and local government web resources and services.